SCP
0 0 0 0 0 0 0 0 0 0 0 0 0 0 0 0 0 0 0 0 -0 -0 -0 -0 -0 0 0 0 -0 -0 -0 -0 -0 -0 -0 -0 -0 -0 -0 -0 -0 -0 -0 -0 -0 -0 -0 -0 -0
0 0 0 0 0 0 0 -0 0 0 0 0 0 0 0 0 0 0 0 0 -0 -0 0 0 -0 -0 0 0 0 0 0 0 -0 -0 -0 0 0 0 0 0 0 0 0 0 0 0 0 0 0
0 0 0 0 0 0 0 0 0 0 0 0 0 0 0 0 0 0 0 0 0 0 0 0 -0 -0 -0 0 0 0 0 0 0 0 0 0 0 0 0 0 0 0 0 0 0 0 0 0 0
0 0 0 0 0 0 0 0 0 0 0 0 0 0 0 0 0 0 0 -0 0 0 0 0 -0 -0 -0 -0 0 0 0 0 0 0 0 0 0 0 0 0 0 0 0 0 0 0 0 0 0
0 0 0 0 0 0 0 0 0 0 0 0 0 0 0 0 0 0 0 0 0 0 0 0 -0 -0 -0 -0 -0 0 0 0 0 0 0 0 0 0 0 0 0 0 0 0 0 0 0 0 0
0 0 0 0 0 0 0 0 0 0 0 0 0 0 0 0 0 0 0 0 0 0 0 0 0 0 0 0 0 0 0 0 0 0 0 0 0 0 0 0 0 0 0 0 0 0 0 0 0
0 0 0 0 0 0 0 0 0 0 0 0 0 0 0 0 0 0 0 0 0 0 0 0 0 0 0 0 0 0 0 0 0 0 0 0 0 0 0 0 0 0 0 0 0 0 0 0 0
0 0 0 0 0 0 0 0 0 0 0 0 0 0 0 0 0 0 0 0 0 0 0 0 0 0 0 0 0 0 0 0 0 0 0 0 0 0 0 0 0 0 0 0 0 0 0 0 0
0 0 0 0 0 0 0 0 0 0 0 0 0 0 0 0 0 0 0 0 0 0 0 0 0 0 0 0 0 0 0 0 0 0 0 0 0 0 0 0 0 0 0 0 0 0 0 0 0
0 0 0 0 0 0 0 0 0 0 0 0 0 0 0 0 0 0 0 0 0 0 0 0 0 0 0 0 0 0 0 0 0 0 0 0 0 0 0 0 0 0 0 0 0 0 0 0 0
0 0 0 0 0 0 -0 -0 -0 0 0 0 0 0 0 0 0 0 0 0 0 0 0 0 0 0 0 0 0 0 0 0 0 0 0 0 0 0 0 0 0 0 0 0 0 0 0 0 0
0 0 0 0 0 0 -0 -0 0 -0 0 0 0 0 0 0 0 0 0 0 0 0 0 0 0 0 0 0 0 0 0 0 0 0 0 0 0 0 0 0 0 0 0 0 0 0 0 0 0
0 0 0 0 0 0 0 -0 -0 -0 -0 0 0 0 0 0 0 0 0 0 0 0 0 0 0 0 0 0 0 0 0 0 0 0 0 0 0 0 0 0 0 0 0 0 0 0 0 0 0
0 0 0 0 0 0 0 -0 -0 -0 -0 -0 0 0 0 0 0 0 0 0 0 0 0 0 0 0 0 0 0 0 0 0 0 0 0 0 0 0 0 0 0 0 0 0 0 0 0 0 0
0 0 0 0 0 0 0 0 -0 -0 -0 -0 -0 0 0 0 0 0 0 0 0 0 0 0 0 0 0 0 0 0 0 0 0 0 0 0 0 0 0 0 0 0 0 0 0 0 0 0 0
0 0 0 0 0 0 0 -0 0 -0 -0 -0 -0 0 0 0 0 0 0 0 0 0 0 0 0 0 0 0 0 0 0 0 0 0 0 0 0 0 0 0 0 0 0 0 0 0 0 0 0
0 0 0 0 0 0 0 0 0 0 0 0 0 0 0 0 0 0 0 0 0 0 0 0 0 0 0 0 0 0 0 0 0 0 0 0 0 0 0 0 0 0 0 0 0 0 0 0 0
0 0 0 0 0 0 0 0 0 0 0 0 0 0 0 0 0 0 0 0 0 0 0 0 0 0 0 0 0 0 0 0 0 0 0 0 0 0 0 0 0 0 0 0 0 0 0 0 0
0 0 0 0 0 0 0 0 0 0 0 0 0 0 0 0 0 0 0 0 0 0 0 0 0 0 0 0 0 0 0 0 0 0 0 0 0 0 0 0 0 0 0 0 0 0 0 0 0
0 0 0 0 0 0 0 0 0 0 0 0 0 0 0 0 0 0 0 0 0 0 0 0 0 0 0 0 0 0 0 0 0 0 0 0 0 0 0 0 0 0 0 0 0 0 0 0 0
0 0 0 0 0 0 0 0 0 0 0 0 0 0 0 0 0 0 0 0 0 0 0 0 0 0 0 0 0 0 0 0 0 0 0 0 0 0 0 0 0 0 0 0 0 0 0 0 0
0 0 0 0 0 0 0 0 0 -0 0 0 0 0 0 0 0 0 0 0 0 0 0 0 0 0 0 0 0 0 0 0 0 0 0 0 0 0 0 0 0 0 0 0 0 0 0 0 0
0 0 0 0 0 0 0 0 0 -0 0 0 0 0 0 0 0 0 0 0 0 0 0 0 0 0 0 0 0 0 0 0 0 0 0 0 0 0 0 0 0 0 0 0 0 0 0 0 0
0 0 0 0 0 -0 0 0 0 0 0 0 0 0 0 -0 0 0 0 0 0 0 0 0 0 0 0 0 0 0 0 0 0 0 0 0 0 0 0 0 0 0 0 0 0 0 0 0 0
0 0 0 -0 0 0 0 0 0 0 0 0 0 0 0 0 0 0 0 0 0 0 0 0 0 0 0 0 0 0 0 0 0 0 0 0 0 0 0 0 0 0 0 0 0 0 0 0 0
0 0 0 0 0 0 0 0 0 0 0 0 0 0 -0 0 0 0 0 0 0 0 0 0 0 0 0 0 0 0 0 0 0 0 0 0 0 0 0 0 0 0 0 0 0 0 0 0 0
0 0 0 0 0 -0 -0 -0 -0 0 0 0 0 0 0 0 0 0 0 0 0 0 0 0 0 0 0 0 0 0 0 0 0 0 0 0 0 0 0 0 0 0 0 0 0 0 0 0 0
0 -0 0 -0 0 -0 -0 -0 -0 0 0 0 0 0 0 0 0 0 0 0 0 0 0 0 0 0 0 0 0 0 0 0 0 0 0 0 0 0 0 0 0 0 0 0 0 0 0 0 0
-0 -0 -0 -0 -0 -0 -0 -0 -0 0 0 0 0 0 0 0 0 0 0 0 0 0 0 0 0 0 0 0 0 0 0 0 0 0 0 0 0 0 0 0 0 0 0 0 0 0 0 0 0
-0 -0 -0 -0 -0 -0 -0 -0 -0 0 -0 0 0 0 0 0 0 0 0 0 0 0 0 0 0 0 0 0 0 0 0 0 0 0 0 0 0 0 0 0 0 0 0 0 0 0 0 0 0
Wind_Speed_500mb
17 11 7 5 7 9 9 12 8 1 1 7 33 13 24 13 16 9 21 57 55 59 53 50 47 39 44 46 33 25 23 24 24 24 24 25 25 24 23 21 21 21 21 22 22 23 24 23 22
12 11 6 7 8 3 10 9 13 7 7 28 32 29 9 7 12 19 51 52 59 58 56 53 47 39 37 43 36 27 23 24 25 25 25 24 22 21 21 21 20 22 19 20 23 23 24 25 23
13 8 6 7 7 12 10 7 9 16 41 5 4 7 12 13 17 45 50 62 61 60 58 54 48 41 32 35 33 29 26 27 27 27 25 23 21 20 18 21 21 19 20 21 23 24 24 23 21
7 5 3 5 12 13 14 11 8 11 11 9 9 10 8 11 30 45 59 68 62 59 56 56 50 39 32 33 32 30 28 28 27 25 24 22 21 21 21 21 22 22 22 23 22 22 21 20 18
8 4 2 5 12 11 7 15 18 9 11 4 5 10 2 17 29 50 58 64 62 59 56 53 45 37 34 34 35 33 31 30 28 26 23 22 22 23 22 22 21 21 21 20 20 20 20 19 18
6 2 4 14 15 10 9 17 23 10 17 8 4 17 15 31 35 52 57 61 59 58 56 51 44 38 37 37 36 35 33 30 28 26 25 26 25 23 22 21 21 19 19 17 18 19 18 19 16
8 6 10 10 10 13 9 6 7 14 16 18 15 8 16 34 35 58 60 60 57 53 53 53 48 39 36 37 37 35 33 31 29 29 28 27 24 22 21 19 18 17 15 15 16 14 16 14 10
10 7 9 12 15 20 8 10 17 11 13 13 38 14 15 56 56 59 59 59 56 53 54 57 51 44 37 36 35 33 32 30 31 31 31 28 25 22 19 16 14 12 12 14 13 12 10 9 4
9 5 13 15 14 14 12 9 12 9 11 18 22 24 17 68 71 66 65 63 59 58 58 59 53 46 36 35 36 34 33 32 33 31 29 27 20 17 15 15 13 13 11 10 4 2 8 4 5
17 10 15 11 13 11 31 23 13 6 9 18 23 28 23 77 81 82 80 81 72 70 70 64 56 49 42 40 40 38 37 37 35 29 22 19 18 13 13 10 9 8 6 1 3 6 11 5 5
10 22 12 11 34 42 43 15 28 13 13 29 37 42 58 90 90 85 82 84 83 70 71 69 63 55 48 44 43 41 39 37 31 23 18 17 19 13 8 9 6 2 4 5 9 10 8 4 6
14 15 14 24 43 23 18 6 13 33 38 40 47 51 78 98 101 96 93 89 82 77 72 68 65 60 55 46 43 42 41 36 35 30 27 23 17 17 14 11 6 9 9 9 8 11 5 6 7
9 13 32 36 40 36 44 26 22 41 36 47 52 42 90 102 103 98 95 90 80 78 71 68 66 61 53 48 46 45 41 40 32 30 27 26 20 16 15 13 12 11 9 9 11 7 6 5 5
24 32 36 37 34 41 22 42 18 2 14 42 50 51 85 103 101 99 100 100 88 79 75 69 67 62 61 53 49 44 46 41 33 29 28 25 21 17 16 15 18 16 12 12 7 8 6 6 6
23 26 28 29 27 21 18 47 67 32 37 45 47 55 82 90 90 104 110 109 98 88 79 77 68 64 60 56 48 46 47 42 38 30 29 29 26 21 20 20 17 15 12 9 10 8 8 9 10
10 10 12 5 21 21 17 78 34 30 37 40 50 60 73 75 97 98 101 101 97 91 87 83 72 69 62 60 48 49 49 41 38 37 34 30 23 17 22 21 15 13 12 11 8 8 9 10 11
7 19 20 18 22 15 32 64 22 35 31 35 45 58 75 83 86 99 100 99 101 90 91 89 79 73 68 65 54 53 51 46 45 41 37 35 28 23 21 20 14 14 14 11 9 9 9 11 14
10 16 17 21 6 14 33 55 20 29 12 30 47 60 73 81 101 106 106 98 98 92 90 87 77 75 79 68 60 59 57 54 48 41 43 37 32 27 25 21 18 18 14 12 9 6 6 10 14
23 35 47 34 30 27 35 42 26 37 50 33 29 39 69 84 91 98 101 97 104 94 92 88 90 84 81 78 71 68 65 57 50 45 41 37 34 28 25 23 22 18 14 10 7 5 5 11 16
26 34 38 30 29 27 36 48 36 31 36 49 51 41 66 76 85 98 103 108 104 97 95 94 87 87 89 78 72 71 68 61 53 48 44 40 33 29 28 25 20 17 13 10 7 5 4 10 17
28 25 31 35 30 38 37 51 36 35 54 53 59 61 55 92 103 104 105 104 103 98 98 96 88 88 85 80 77 76 72 63 58 50 45 38 35 32 29 24 20 16 11 8 5 4 5 7 15
29 24 35 33 20 26 20 32 14 12 38 40 56 56 50 65 105 120 115 101 104 98 92 94 97 91 86 79 83 82 77 73 61 57 53 42 39 33 27 22 18 13 10 8 4 3 4 5 7
20 20 28 34 28 23 32 15 11 9 20 39 44 65 44 40 83 102 119 128 114 105 100 94 94 97 92 91 83 84 83 73 63 61 55 49 44 35 28 21 16 13 9 5 3 3 3 2 1
22 23 27 32 17 20 47 29 15 19 32 28 32 47 51 34 59 95 120 119 122 113 108 101 96 98 99 96 91 90 91 75 72 66 56 49 42 35 27 20 17 11 6 3 2 2 2 2 3
3 10 10 6 9 14 9 18 33 24 33 36 40 50 55 40 44 44 76 127 120 118 109 104 108 114 110 103 102 94 80 75 72 66 53 43 36 29 23 20 14 10 6 3 1 2 3 4 6
18 7 10 11 8 18 19 11 12 17 18 42 51 62 63 61 54 47 63 116 130 117 108 112 111 102 100 97 86 78 70 70 62 52 49 31 22 19 22 17 15 10 5 1 1 3 5 6 9
7 8 7 16 10 12 7 13 18 13 9 10 29 44 57 68 70 74 85 70 100 115 107 97 90 85 78 81 73 69 69 65 69 57 45 41 30 31 21 16 14 7 4 3 3 5 7 8 11
13 7 10 9 7 10 9 10 10 20 18 13 15 25 36 47 54 61 78 77 95 100 95 81 78 78 72 67 64 61 69 67 63 52 43 34 30 22 23 21 12 7 6 6 6 7 9 10 13
7 6 6 6 12 5 11 7 4 17 23 32 19 41 47 53 57 58 66 70 69 86 83 79 73 72 70 64 62 69 64 57 55 52 47 40 33 33 25 18 12 10 9 8 10 10 11 13 16
2 8 4 5 14 7 6 12 15 19 24 29 6 17 34 48 59 62 66 70 67 68 71 71 65 69 71 63 70 63 54 53 54 49 40 41 35 29 25 17 14 12 12 12 11 11 13 15 19
Wind_Direction_500mb
327 314 289 291 50 58 281 267 283 278 6 185 153 176 181 140 163 205 160 168 170 167 168 163 171 173 173 178 177 169 164 159 149 137 128 122 119 115 109 103 98 91 90 88 93 91 91 89 87
328 320 265 125 112 100 267 269 278 269 140 123 134 126 135 171 163 148 153 163 167 167 167 165 175 171 173 182 187 184 174 160 147 138 131 126 121 117 116 110 102 92 86 88 86 85 84 83 80
316 300 243 132 156 184 220 224 248 311 160 166 134 152 152 172 173 159 159 160 167 169 167 171 176 175 177 181 183 183 172 157 146 141 136 129 123 113 106 105 102 98 94 90 86 82 81 83 82
296 234 109 119 218 249 207 229 326 4 240 264 190 96 140 160 174 163 165 164 170 170 171 175 178 182 187 183 181 175 166 156 147 138 134 127 117 109 104 100 95 91 90 87 87 84 80 77 76
268 221 196 220 243 261 259 277 303 280 257 252 175 183 91 162 160 164 167 169 172 170 172 176 181 185 181 175 172 168 164 155 149 144 134 125 120 114 109 106 104 100 96 93 92 89 82 78 82
250 162 151 229 242 245 265 268 302 237 231 209 192 148 153 167 173 167 169 176 176 173 175 176 178 176 174 172 170 168 162 156 151 145 138 130 125 122 117 114 110 106 107 104 99 96 85 81 80
184 130 215 220 245 272 229 220 225 283 234 205 166 149 166 177 181 172 169 175 178 180 180 174 171 171 172 172 169 166 161 158 153 145 138 131 130 124 119 115 111 108 103 98 101 93 69 59 56
228 155 206 210 222 258 236 233 261 306 266 212 190 209 184 180 175 172 172 175 182 183 182 175 171 171 172 171 169 164 161 157 152 148 142 138 132 130 130 126 119 119 121 110 86 57 60 75 15
209 225 227 217 195 243 226 225 244 299 222 200 194 243 259 176 173 171 170 175 182 188 185 179 179 173 175 174 168 164 162 158 158 154 147 134 135 148 140 134 131 118 98 87 103 41 323 10 61
199 217 229 193 211 236 257 229 246 256 223 226 259 226 217 177 176 175 177 179 184 187 187 186 184 181 184 179 172 167 165 164 163 160 150 166 169 168 148 155 137 129 111 229 177 274 308 330 136
233 247 246 229 238 246 263 240 263 235 255 250 242 221 187 179 180 183 183 185 185 188 189 191 190 190 191 184 176 173 173 171 167 146 157 171 171 181 210 163 160 152 196 239 269 287 308 237 196
278 262 256 259 248 256 271 247 264 243 251 264 286 249 198 186 186 188 187 187 188 187 189 192 191 188 189 189 182 181 181 176 167 167 179 183 184 192 216 193 207 243 234 240 259 284 281 158 160
276 283 287 288 283 283 281 275 255 256 255 265 269 236 199 196 195 191 191 190 189 188 189 194 193 193 197 192 187 185 179 170 162 175 181 189 195 212 230 211 225 219 234 260 281 263 185 169 177
311 309 295 291 292 282 284 286 268 36 258 249 253 226 211 200 197 191 192 191 192 191 188 188 196 197 198 195 191 188 180 171 176 186 190 198 211 215 221 222 219 218 238 266 224 176 208 234 239
298 302 297 270 256 256 307 272 250 260 253 245 248 227 211 202 196 197 198 196 193 191 186 189 194 198 192 193 190 190 184 179 186 193 197 207 209 220 227 223 217 226 242 203 187 204 228 243 242
318 268 279 20 216 223 178 256 272 247 228 220 224 208 197 201 202 202 200 200 195 189 188 187 196 193 195 192 197 190 185 186 194 199 203 206 210 230 205 210 214 234 210 198 214 235 234 238 229
226 272 277 298 255 242 211 263 255 248 239 237 225 204 204 202 206 204 201 204 198 192 189 193 195 196 193 197 198 194 192 194 204 205 201 205 205 205 207 213 230 220 201 215 225 230 222 216 209
274 285 282 275 306 292 244 258 263 265 271 246 235 219 207 203 206 207 205 205 199 194 194 195 194 193 194 198 198 197 197 200 206 204 205 204 198 201 208 218 218 199 210 221 219 217 198 197 202
281 280 279 278 282 283 271 272 276 269 257 254 249 271 215 207 204 202 203 199 196 196 197 198 191 191 195 196 198 199 203 205 206 204 203 199 197 200 210 209 199 204 209 221 224 229 179 182 190
260 265 274 284 260 253 260 274 278 274 256 251 245 267 237 206 198 199 198 193 197 194 199 196 194 196 199 205 206 204 204 205 204 204 202 194 198 199 197 195 204 206 210 208 202 201 189 183 189
259 256 267 265 286 271 268 265 261 258 243 241 231 232 287 199 196 197 193 192 197 197 197 197 199 201 200 201 204 207 205 204 195 199 197 190 195 190 190 193 203 205 202 213 207 180 183 194 200
275 250 252 261 276 276 203 272 241 238 240 237 232 218 243 249 197 196 193 199 197 201 202 204 202 203 202 208 210 212 211 207 199 198 191 189 185 189 193 193 194 199 198 207 198 152 151 156 181
257 275 256 255 261 282 253 252 261 174 246 242 231 232 224 245 200 193 192 197 200 204 202 200 201 203 207 208 211 217 207 203 200 191 186 187 182 183 189 189 190 196 191 186 160 98 77 103 223
253 283 283 271 247 266 270 217 245 229 223 231 224 218 213 232 223 198 198 194 197 198 197 197 202 204 206 208 210 211 210 198 193 185 182 181 182 179 183 180 191 187 172 145 96 84 99 40 338
156 311 286 271 230 248 309 228 241 250 228 208 196 193 179 187 212 226 188 190 195 193 196 198 201 205 208 214 213 210 203 193 189 183 176 178 180 175 183 182 184 188 166 136 74 9 358 359 337
293 200 270 299 303 304 296 251 258 265 279 227 198 197 187 206 216 243 218 190 197 193 196 199 201 207 203 206 205 200 193 195 181 176 159 170 175 183 185 179 190 182 156 177 303 316 331 333 329
279 232 202 278 220 265 236 280 299 224 261 212 187 195 199 201 203 205 206 205 194 196 198 199 196 207 203 199 199 191 185 180 168 163 162 158 188 199 186 191 193 181 186 230 284 289 297 314 318
206 300 318 270 304 278 251 266 261 318 345 273 182 181 191 189 193 185 195 199 197 194 193 194 197 204 204 196 188 182 175 162 161 162 161 166 187 193 208 197 189 205 224 242 262 276 289 303 307
325 311 268 287 257 293 317 300 300 288 306 300 209 194 180 175 189 193 189 192 197 189 185 188 193 195 196 184 180 171 162 159 154 154 157 174 195 198 195 194 198 210 231 249 257 267 288 300 309
244 218 246 279 299 284 249 283 336 321 289 285 270 151 170 172 178 184 186 184 191 182 181 178 184 179 178 169 163 158 154 160 160 155 177 187 188 195 195 196 206 220 235 242 257 276 290 308 318
Wind_Speed_850mb
17 11 7 5 7 9 9 12 8 1 1 7 33 13 24 13 16 9 21 57 55 59 53 50 47 39 44 46 33 25 23 24 24 24 24 25 25 24 23 21 21 21 21 22 22 23 24 23 22
12 11 6 7 8 3 10 9 13 7 7 28 32 29 9 7 12 19 51 52 59 58 56 53 47 39 37 43 36 27 23 24 25 25 25 24 22 21 21 21 20 22 19 20 23 23 24 25 23
13 8 6 7 7 12 10 7 9 16 41 5 4 7 12 13 17 45 50 62 61 60 58 54 48 41 32 35 33 29 26 27 27 27 25 23 21 20 18 21 21 19 20 21 23 24 24 23 21
7 5 3 5 12 13 14 11 8 11 11 9 9 10 8 11 30 45 59 68 62 59 56 56 50 39 32 33 32 30 28 28 27 25 24 22 21 21 21 21 22 22 22 23 22 22 21 20 18
8 4 2 5 12 11 7 15 18 9 11 4 5 10 2 17 29 50 58 64 62 59 56 53 45 37 34 34 35 33 31 30 28 26 23 22 22 23 22 22 21 21 21 20 20 20 20 19 18
6 2 4 14 15 10 9 17 23 10 17 8 4 17 15 31 35 52 57 61 59 58 56 51 44 38 37 37 36 35 33 30 28 26 25 26 25 23 22 21 21 19 19 17 18 19 18 19 16
8 6 10 10 10 13 9 6 7 14 16 18 15 8 16 34 35 58 60 60 57 53 53 53 48 39 36 37 37 35 33 31 29 29 28 27 24 22 21 19 18 17 15 15 16 14 16 14 10
10 7 9 12 15 20 8 10 17 11 13 13 38 14 15 56 56 59 59 59 56 53 54 57 51 44 37 36 35 33 32 30 31 31 31 28 25 22 19 16 14 12 12 14 13 12 10 9 4
9 5 13 15 14 14 12 9 12 9 11 18 22 24 17 68 71 66 65 63 59 58 58 59 53 46 36 35 36 34 33 32 33 31 29 27 20 17 15 15 13 13 11 10 4 2 8 4 5
17 10 15 11 13 11 31 23 13 6 9 18 23 28 23 77 81 82 80 81 72 70 70 64 56 49 42 40 40 38 37 37 35 29 22 19 18 13 13 10 9 8 6 1 3 6 11 5 5
10 22 12 11 34 42 43 15 28 13 13 29 37 42 58 90 90 85 82 84 83 70 71 69 63 55 48 44 43 41 39 37 31 23 18 17 19 13 8 9 6 2 4 5 9 10 8 4 6
14 15 14 24 43 23 18 6 13 33 38 40 47 51 78 98 101 96 93 89 82 77 72 68 65 60 55 46 43 42 41 36 35 30 27 23 17 17 14 11 6 9 9 9 8 11 5 6 7
9 13 32 36 40 36 44 26 22 41 36 47 52 42 90 102 103 98 95 90 80 78 71 68 66 61 53 48 46 45 41 40 32 30 27 26 20 16 15 13 12 11 9 9 11 7 6 5 5
24 32 36 37 34 41 22 42 18 2 14 42 50 51 85 103 101 99 100 100 88 79 75 69 67 62 61 53 49 44 46 41 33 29 28 25 21 17 16 15 18 16 12 12 7 8 6 6 6
23 26 28 29 27 21 18 47 67 32 37 45 47 55 82 90 90 104 110 109 98 88 79 77 68 64 60 56 48 46 47 42 38 30 29 29 26 21 20 20 17 15 12 9 10 8 8 9 10
10 10 12 5 21 21 17 78 34 30 37 40 50 60 73 75 97 98 101 101 97 91 87 83 72 69 62 60 48 49 49 41 38 37 34 30 23 17 22 21 15 13 12 11 8 8 9 10 11
7 19 20 18 22 15 32 64 22 35 31 35 45 58 75 83 86 99 100 99 101 90 91 89 79 73 68 65 54 53 51 46 45 41 37 35 28 23 21 20 14 14 14 11 9 9 9 11 14
10 16 17 21 6 14 33 55 20 29 12 30 47 60 73 81 101 106 106 98 98 92 90 87 77 75 79 68 60 59 57 54 48 41 43 37 32 27 25 21 18 18 14 12 9 6 6 10 14
23 35 47 34 30 27 35 42 26 37 50 33 29 39 69 84 91 98 101 97 104 94 92 88 90 84 81 78 71 68 65 57 50 45 41 37 34 28 25 23 22 18 14 10 7 5 5 11 16
26 34 38 30 29 27 36 48 36 31 36 49 51 41 66 76 85 98 103 108 104 97 95 94 87 87 89 78 72 71 68 61 53 48 44 40 33 29 28 25 20 17 13 10 7 5 4 10 17
28 25 31 35 30 38 37 51 36 35 54 53 59 61 55 92 103 104 105 104 103 98 98 96 88 88 85 80 77 76 72 63 58 50 45 38 35 32 29 24 20 16 11 8 5 4 5 7 15
29 24 35 33 20 26 20 32 14 12 38 40 56 56 50 65 105 120 115 101 104 98 92 94 97 91 86 79 83 82 77 73 61 57 53 42 39 33 27 22 18 13 10 8 4 3 4 5 7
20 20 28 34 28 23 32 15 11 9 20 39 44 65 44 40 83 102 119 128 114 105 100 94 94 97 92 91 83 84 83 73 63 61 55 49 44 35 28 21 16 13 9 5 3 3 3 2 1
22 23 27 32 17 20 47 29 15 19 32 28 32 47 51 34 59 95 120 119 122 113 108 101 96 98 99 96 91 90 91 75 72 66 56 49 42 35 27 20 17 11 6 3 2 2 2 2 3
3 10 10 6 9 14 9 18 33 24 33 36 40 50 55 40 44 44 76 127 120 118 109 104 108 114 110 103 102 94 80 75 72 66 53 43 36 29 23 20 14 10 6 3 1 2 3 4 6
18 7 10 11 8 18 19 11 12 17 18 42 51 62 63 61 54 47 63 116 130 117 108 112 111 102 100 97 86 78 70 70 62 52 49 31 22 19 22 17 15 10 5 1 1 3 5 6 9
7 8 7 16 10 12 7 13 18 13 9 10 29 44 57 68 70 74 85 70 100 115 107 97 90 85 78 81 73 69 69 65 69 57 45 41 30 31 21 16 14 7 4 3 3 5 7 8 11
13 7 10 9 7 10 9 10 10 20 18 13 15 25 36 47 54 61 78 77 95 100 95 81 78 78 72 67 64 61 69 67 63 52 43 34 30 22 23 21 12 7 6 6 6 7 9 10 13
7 6 6 6 12 5 11 7 4 17 23 32 19 41 47 53 57 58 66 70 69 86 83 79 73 72 70 64 62 69 64 57 55 52 47 40 33 33 25 18 12 10 9 8 10 10 11 13 16
2 8 4 5 14 7 6 12 15 19 24 29 6 17 34 48 59 62 66 70 67 68 71 71 65 69 71 63 70 63 54 53 54 49 40 41 35 29 25 17 14 12 12 12 11 11 13 15 19
Wind_Direction_850mb
327 314 289 291 50 58 281 267 283 278 6 185 153 176 181 140 163 205 160 168 170 167 168 163 171 173 173 178 177 169 164 159 149 137 128 122 119 115 109 103 98 91 90 88 93 91 91 89 87
328 320 265 125 112 100 267 269 278 269 140 123 134 126 135 171 163 148 153 163 167 167 167 165 175 171 173 182 187 184 174 160 147 138 131 126 121 117 116 110 102 92 86 88 86 85 84 83 80
316 300 243 132 156 184 220 224 248 311 160 166 134 152 152 172 173 159 159 160 167 169 167 171 176 175 177 181 183 183 172 157 146 141 136 129 123 113 106 105 102 98 94 90 86 82 81 83 82
296 234 109 119 218 249 207 229 326 4 240 264 190 96 140 160 174 163 165 164 170 170 171 175 178 182 187 183 181 175 166 156 147 138 134 127 117 109 104 100 95 91 90 87 87 84 80 77 76
268 221 196 220 243 261 259 277 303 280 257 252 175 183 91 162 160 164 167 169 172 170 172 176 181 185 181 175 172 168 164 155 149 144 134 125 120 114 109 106 104 100 96 93 92 89 82 78 82
250 162 151 229 242 245 265 268 302 237 231 209 192 148 153 167 173 167 169 176 176 173 175 176 178 176 174 172 170 168 162 156 151 145 138 130 125 122 117 114 110 106 107 104 99 96 85 81 80
184 130 215 220 245 272 229 220 225 283 234 205 166 149 166 177 181 172 169 175 178 180 180 174 171 171 172 172 169 166 161 158 153 145 138 131 130 124 119 115 111 108 103 98 101 93 69 59 56
228 155 206 210 222 258 236 233 261 306 266 212 190 209 184 180 175 172 172 175 182 183 182 175 171 171 172 171 169 164 161 157 152 148 142 138 132 130 130 126 119 119 121 110 86 57 60 75 15
209 225 227 217 195 243 226 225 244 299 222 200 194 243 259 176 173 171 170 175 182 188 185 179 179 173 175 174 168 164 162 158 158 154 147 134 135 148 140 134 131 118 98 87 103 41 323 10 61
199 217 229 193 211 236 257 229 246 256 223 226 259 226 217 177 176 175 177 179 184 187 187 186 184 181 184 179 172 167 165 164 163 160 150 166 169 168 148 155 137 129 111 229 177 274 308 330 136
233 247 246 229 238 246 263 240 263 235 255 250 242 221 187 179 180 183 183 185 185 188 189 191 190 190 191 184 176 173 173 171 167 146 157 171 171 181 210 163 160 152 196 239 269 287 308 237 196
278 262 256 259 248 256 271 247 264 243 251 264 286 249 198 186 186 188 187 187 188 187 189 192 191 188 189 189 182 181 181 176 167 167 179 183 184 192 216 193 207 243 234 240 259 284 281 158 160
276 283 287 288 283 283 281 275 255 256 255 265 269 236 199 196 195 191 191 190 189 188 189 194 193 193 197 192 187 185 179 170 162 175 181 189 195 212 230 211 225 219 234 260 281 263 185 169 177
311 309 295 291 292 282 284 286 268 36 258 249 253 226 211 200 197 191 192 191 192 191 188 188 196 197 198 195 191 188 180 171 176 186 190 198 211 215 221 222 219 218 238 266 224 176 208 234 239
298 302 297 270 256 256 307 272 250 260 253 245 248 227 211 202 196 197 198 196 193 191 186 189 194 198 192 193 190 190 184 179 186 193 197 207 209 220 227 223 217 226 242 203 187 204 228 243 242
318 268 279 20 216 223 178 256 272 247 228 220 224 208 197 201 202 202 200 200 195 189 188 187 196 193 195 192 197 190 185 186 194 199 203 206 210 230 205 210 214 234 210 198 214 235 234 238 229
226 272 277 298 255 242 211 263 255 248 239 237 225 204 204 202 206 204 201 204 198 192 189 193 195 196 193 197 198 194 192 194 204 205 201 205 205 205 207 213 230 220 201 215 225 230 222 216 209
274 285 282 275 306 292 244 258 263 265 271 246 235 219 207 203 206 207 205 205 199 194 194 195 194 193 194 198 198 197 197 200 206 204 205 204 198 201 208 218 218 199 210 221 219 217 198 197 202
281 280 279 278 282 283 271 272 276 269 257 254 249 271 215 207 204 202 203 199 196 196 197 198 191 191 195 196 198 199 203 205 206 204 203 199 197 200 210 209 199 204 209 221 224 229 179 182 190
260 265 274 284 260 253 260 274 278 274 256 251 245 267 237 206 198 199 198 193 197 194 199 196 194 196 199 205 206 204 204 205 204 204 202 194 198 199 197 195 204 206 210 208 202 201 189 183 189
259 256 267 265 286 271 268 265 261 258 243 241 231 232 287 199 196 197 193 192 197 197 197 197 199 201 200 201 204 207 205 204 195 199 197 190 195 190 190 193 203 205 202 213 207 180 183 194 200
275 250 252 261 276 276 203 272 241 238 240 237 232 218 243 249 197 196 193 199 197 201 202 204 202 203 202 208 210 212 211 207 199 198 191 189 185 189 193 193 194 199 198 207 198 152 151 156 181
257 275 256 255 261 282 253 252 261 174 246 242 231 232 224 245 200 193 192 197 200 204 202 200 201 203 207 208 211 217 207 203 200 191 186 187 182 183 189 189 190 196 191 186 160 98 77 103 223
253 283 283 271 247 266 270 217 245 229 223 231 224 218 213 232 223 198 198 194 197 198 197 197 202 204 206 208 210 211 210 198 193 185 182 181 182 179 183 180 191 187 172 145 96 84 99 40 338
156 311 286 271 230 248 309 228 241 250 228 208 196 193 179 187 212 226 188 190 195 193 196 198 201 205 208 214 213 210 203 193 189 183 176 178 180 175 183 182 184 188 166 136 74 9 358 359 337
293 200 270 299 303 304 296 251 258 265 279 227 198 197 187 206 216 243 218 190 197 193 196 199 201 207 203 206 205 200 193 195 181 176 159 170 175 183 185 179 190 182 156 177 303 316 331 333 329
279 232 202 278 220 265 236 280 299 224 261 212 187 195 199 201 203 205 206 205 194 196 198 199 196 207 203 199 199 191 185 180 168 163 162 158 188 199 186 191 193 181 186 230 284 289 297 314 318
206 300 318 270 304 278 251 266 261 318 345 273 182 181 191 189 193 185 195 199 197 194 193 194 197 204 204 196 188 182 175 162 161 162 161 166 187 193 208 197 189 205 224 242 262 276 289 303 307
325 311 268 287 257 293 317 300 300 288 306 300 209 194 180 175 189 193 189 192 197 189 185 188 193 195 196 184 180 171 162 159 154 154 157 174 195 198 195 194 198 210 231 249 257 267 288 300 309
244 218 246 279 299 284 249 283 336 321 289 285 270 151 170 172 178 184 186 184 191 182 181 178 184 179 178 169 163 158 154 160 160 155 177 187 188 195 195 196 206 220 235 242 257 276 290 308 318